Terminal Aerodrome Forecast
Issued by NWS Brownsville, TX

Home | Current Version | Previous Version | Text Only | Print | Product List | Glossary On
Versions: 1 2 3 4 5 6 7 8 9 10 11 12 13 14 15 16 17 18 19 20 21 22 23 24 25 26 27
000
FTUS44 KBRO 052323
TAFBRO
TAF
KBRO 052323Z 0600/0624 35014G20KT P6SM SCT035 BKN060
     FM060300 35012KT P6SM SCT025 BKN070
     FM062100 36010KT P6SM BKN070=

USA.gov is the U.S. government's official web portal to all federal, state and local government web resources and services.